Regional Weather Roundup
Issued by NWS

Home | Current Version | Previous Version | Graphics & Text | Print | Product List | Glossary On
Versions: 1 2 3 4 5 6 7 8 9 10 11 12 13 14 15 16 17 18 19 20 21 22 23 24 25 26 27 28 29 30 31 32 33 34 35 36 37 38 39 40 41 42 43 44 45 46 47 48 49 50
000
ASUS43 KMPX 222201
RWRMN
WEATHER ROUNDUP FOR MINNESOTA
NATIONAL WEATHER SERVICE TWIN CITIES/CHANHASSEN MN
400 PM CST MON DEC 22 2014


NOTE: "FAIR" INDICATES FEW OR NO CLOUDS BELOW 12,000 FEET WITH NO
SIGNIFICANT WEATHER AND/OR OBSTRUCTIONS TO VISIBILITY. N/A MEANS
CURRENT SKY AND/OR WEATHER CONDITIONS ARE NOT AVAILABLE.

MNZ060>063-068>070-222300-
   Twin Cities Metro

CITY           SKY/WX    TMP DP  RH WIND       PRES   REMARKS
TWIN CITIES    LGT RAIN  36  34  92 E13       29.60S FOG
ST PAUL        LGT RAIN  37  35  92 SE10      29.62S FOG
CRYSTAL        CLOUDY    37  34  89 E7        29.59S FOG
BLAINE         LGT RAIN  37  37 100 E9        29.60S
LAKEVILLE      DRIZZLE   36  34  93 E9        29.58S
EDEN PRAIRIE   LGT RAIN  36  34  92 E12       29.57S FOG
SOUTH ST PAUL  CLOUDY    38  36  93 SE6       29.60S FOG
LAKE ELMO      DRIZZLE   37  36  93 E7        29.62S
$$
MNZ001>005-007-008-013>017-022>024-027-028-222300-
   Northwest Minnesota

CITY           SKY/WX    TMP DP  RH WIND       PRES   REMARKS
BEMIDJI        CLOUDY    34  33  96 E8        29.60R WCI  27
HALLOCK        CLOUDY    36  34  93 NE6       29.63R FOG
ROSEAU         CLOUDY    36  30  80 E5        29.64R HAZE
WARROAD        DRIZZLE   34  30  86 E7        29.65R WCI  28
THIEF RVR FALL CLOUDY    36  36 100 E7        29.60R
CROOKSTON      MIX PCPN  37  36  93 E5        29.60R
FOSSTON        CLOUDY    36  34  93 E7        29.59R
DETROIT LAKES  LGT RAIN  36  34  93 SE12      29.55R
MOORHEAD       CLOUDY    39  39 100 E7        29.55R
PARK RAPIDS    MIX PCPN  35  34  96 E7        29.57R WCI  29
MAHNOMEN       CLOUDY    37  35  93 SE8       29.56R FOG
$$
MNZ006-009>011-018-025>026-222300-
   North Central Minnesota

CITY           SKY/WX    TMP DP  RH WIND       PRES   REMARKS
BAUDETTE       CLOUDY    35  33  92 E6        29.64R WCI  30
FLAG ISLAND    CLOUDY    34  34 100 E7        29.66R FOG     WCI  28
INTL FALLS     MIX PCPN  34  32  92 E7        29.67R WCI  28
WASKISH        CLOUDY    36  36 100 CALM      29.64R
BIG FORK       LGT RAIN  36  34  93 SE8       29.65R
LONGVILLE      DRIZZLE   34  34 100 E5        29.61R WCI  30
GRAND RAPIDS   CLOUDY    34  30  86 SE5       29.64R WCI  30
CRANE LAKE     RAIN      34  34 100 CALM      29.71R
ORR            FLURRIES  34  30  86 CALM      29.65R
COOK           LGT RAIN  34  34 100 E3        29.68R
WALKER         RAIN      33  32  97 E3        29.59S
$$
MNZ012-019>021-037-222300-
   Northeast Minnesota

CITY           SKY/WX    TMP DP  RH WIND       PRES   REMARKS
DULUTH         FOG       34  32  92 E13       29.67R VSB 1/4 WCI  25
ELY            CLOUDY    34  32  93 SE6       29.69R WCI  29
HIBBING        CLOUDY    34  32  92 SE9       29.66S FOG     WCI  27
EVELETH        CLOUDY    34  34 100 E5        29.69R FOG     WCI  30
DULUTH HARBOR  DRIZZLE   36  34  93 CALM      29.71S
TWO HARBORS    CLOUDY    37  34  87 E8        29.69R
SILVER BAY     DRIZZLE   36  34  93 E5        29.71R
GRAND MARAIS     N/A     37  35  92 E6        29.78R
G MARAIS ARPRT SNOW      30  28  93 CALM      29.74R VSB<1/4
$$
MNZ029>031-032-039>041-046>048-054>057-064-222300-
   West Central Minnesota

CITY           SKY/WX    TMP DP  RH WIND       PRES   REMARKS
FERGUS FALLS   CLOUDY    36  36 100 SE12      29.55R
WHEATON        LGT RAIN  34  34 100 E15       29.51R WCI  24
MORRIS         LGT RAIN  36  34  93 E13G20    29.49R
ALEXANDRIA     CLOUDY    34  33  96 E14       29.53S FOG     WCI  25
ELBOW LAKE     LGT RAIN  34  33  96 E13G18    29.52R WCI  25
WADENA         DRIZZLE   34  34 100 E9G16     29.56R WCI  26
GLENWOOD       LGT SNOW  34  34 100 E16       29.53R WCI  23
APPLETON       DRIZZLE   37  36  93 E15       29.48R
BENSON         MIX PCPN  36  34  93 SE12G17   29.51R
ORTONVILLE     DRIZZLE   36  36 100 E15       29.47R
MADISON        DRIZZLE   39  39 100 SE12      29.46R
WILLMAR        CLOUDY    36  34  93 E14       29.53R FOG
$$
MNZ033>034-036-042>043-049>051-058-059-222300-
   Central Minnesota

CITY           SKY/WX    TMP DP  RH WIND       PRES   REMARKS
ST CLOUD       MIX PCPN  37  33  85 E7        29.58R FOG
SAUK CENTRE    RAIN      33  33  98 E12       29.55R WCI  25
PAYNESVILLE    CLOUDY    32  32 100 NE13      29.55R FOG     WCI  22
AITKIN         MIX PCPN  36  30  80 E3        29.61R
PINE RIVER     LGT SNOW  34  34 100 E7        29.64R WCI  28
BRAINERD       LGT SNOW  33  33 100 E7        29.61R FOG     WCI  27
STAPLES        LGT RAIN  34  34 100 E7        29.58R WCI  28
LONG PRAIRIE   MIX PCPN  32  32 100 E9        29.56R WCI  24
LITTLE FALLS   MIX PCPN  32  32 100 E8        29.59R WCI  25
LITCHFIELD     DRIZZLE   36  36 100 E13       29.55S
BUFFALO        LGT RAIN  35  33  92 E10       29.59S WCI  27
MAPLE LAKE     DRIZZLE   36  35  97 E8        29.58S
$$
MNZ037-044-045-052-053-222300-
   East Central Minnesota

CITY           SKY/WX    TMP DP  RH WIND       PRES   REMARKS
PRINCETON      RAIN      36  34  93 E7        29.61R
MORA           CLOUDY    32  32 100 E7        29.65R VSB 1   WCI  26
CAMBRIDGE      MIX PCPN  36  28  75 E7        29.60S
RUSH CITY      CLOUDY    35  33  94 E6        29.64S WCI  30
MOOSE LAKE     LGT RAIN  34  32  93 E5        29.64R WCI  30
HINCKLEY       LGT RAIN  34  34 100 CALM      29.65R
CLOQUET        FOG       34  34 100 E8        29.66R VSB 1   WCI  27
MCGREGOR       CLOUDY    34  34 100 E6        29.64R WCI  29
$$
MNZ071>073-080-081-089-090-097-098-222300-
   Southwest Minnesota

CITY           SKY/WX    TMP DP  RH WIND       PRES   REMARKS
MONTEVIDEO     RAIN      37  37 100 SE14      29.50R
GRANITE FALLS  LGT RAIN  37  36  95 E10G16    29.50R
CANBY          LGT RAIN  38  38  99 SE10G16   29.46R
MARSHALL       CLOUDY    37  34  87 SE15      29.46R
REDWOOD FALLS  LGT RAIN  38  36  92 SE13      29.50R FOG
OLIVIA         CLOUDY    36  36 100 SE14      29.51R FOG
PIPESTONE      DRIZZLE   37  37 100 SE8       29.41R
WINDOM         LGT RAIN  37  37 100 SE15      29.47R
WORTHINGTON    CLOUDY    37 -11  12 SE13      29.45R
JACKSON        CLOUDY    36  36 100 SE16      29.47S FOG
TRACY          LGT RAIN  38  37  97 SE10      29.46S
SLAYTON        LGT RAIN  37  37 100 SE12      29.45R
$$
MNZ065>067-074>077-082>085-091>093-222300-
   South Central Minnesota

CITY           SKY/WX    TMP DP  RH WIND       PRES   REMARKS
MANKATO        CLOUDY    36  30  80 SE16      29.54R
NEW ULM        DRIZZLE   36  36 100 SE10G18   29.52R
FAIRMONT       CLOUDY    36  32  87 SE13      29.49S
GLENCOE        DRIZZLE   36  36 100 E12       29.55S
FARIBAULT      DRIZZLE   36  34  93 E9        29.57S
OWATONNA       RAIN      36  34  93 E12       29.55F
WASECA         LGT RAIN  34  32  93 E14       29.56S WCI  24
ALBERT LEA     DRIZZLE   36  36 100 E14       29.53S
$$
MNZ078>079-086>088-094>096-222300-
   Southeast Minnesota

CITY           SKY/WX    TMP DP  RH WIND       PRES   REMARKS
ROCHESTER      LGT RAIN  35  34  96 E14       29.57F FOG     WCI  26
RED WING       DRIZZLE   37  36  93 E8        29.61S
STANTON        DRIZZLE   38  34  88 E8        29.57F
DODGE CENTER   RAIN      36  36 100 E12       29.56S
WINONA         CLOUDY    37  36  93 SE8       29.63F FOG
AUSTIN         DRIZZLE   36  34  93 E13       29.54F
PRESTON        LGT RAIN  34  33  94 SE8       29.58F WCI  27
$$
ABBREVIATIONS USED IN REMARKS
   TC - TEMPERATURES IN CELSIUS
  WCI - WIND CHILL INDEX
   HX - HEAT INDEX
  VSB - VISIBILITY
$$


USA.gov is the U.S. government's official web portal to all federal, state and local government web resources and services.